FW6829 Weather Reports


Display with metric or nautical units.
time (UTC)temp
F
wind
direction
speed
MPH
gust
MPH
rain 1hr
in
rain 24hr
in
rain mn
in
humidity
%
barometer
mb
20211017182003 32 286 8.0 15.0 0.00 0.00 0.00 80 1040.1
20211017181503 32 299 7.0 16.0 0.00 0.00 0.00 80 1051.2
20211017181002 32 304 8.0 16.0 0.00 0.00 0.00 80 1065.8
20211017180503 32 311 9.0 16.0 0.00 0.00 0.00 80 1068.0
20211017180003 32 303 5.0 15.0 0.00 0.00 0.00 80 1054.6
20211017175502 31 306 6.0 15.0 0.00 0.00 0.00 80 1051.8
20211017175002 31 297 4.0 13.0 0.00 0.00 0.00 81 1042.7
20211017174502 32 322 3.0 13.0 0.00 0.00 0.00 80 1019.1
20211017174002 32 314 6.0 13.0 0.00 0.00 0.00 80 1059.9
20211017173503 31 314 6.0 13.0 0.00 0.00 0.00 80 1084.5
20211017173003 32 303 3.0 12.0 0.00 0.00 0.00 80 1075.0
20211017172502 32 300 6.0 12.0 0.00 0.00 0.00 80 1070.4
20211017172002 32 308 4.0 12.0 0.00 0.00 0.00 80 1079.8
20211017171502 32 312 5.0 12.0 0.00 0.00 0.00 79 1069.5
20211017171002 32 300 5.0 12.0 0.00 0.00 0.00 79 1069.9
20211017170502 32 311 5.0 11.0 0.00 0.00 0.00 78 1099.0
20211017170002 32 324 5.0 11.0 0.00 0.00 0.00 78 1105.3
20211017165501 32 325 5.0 13.0 0.00 0.00 0.00 78 1081.9
20211017165001 32 299 3.0 13.0 0.00 0.00 0.00 77 1067.0
20211017164500 33 319 6.0 12.0 0.00 0.00 0.00 77 1079.1
20211017164000 33 321 5.0 17.0 0.00 0.00 0.00 77 1060.3
20211017163500 33 310 6.0 17.0 0.00 0.00 0.00 76 1091.6
20211017163000 33 320 8.0 15.0 0.00 0.00 0.00 76 1078.5
20211017162500 33 316 10.0 15.0 0.00 0.00 0.00 76 1082.9
20211017161959 33 320 7.0 14.0 0.00 0.00 0.00 76 1098.9
20211017161459 33 321 8.0 16.0 0.00 0.00 0.00 76 1099.6
20211017160959 33 312 10.0 20.0 0.00 0.00 0.00 76 1098.5
20211017160459 33 326 8.0 20.0 0.00 0.00 0.00 76 1101.3
20211017155958 33 327 9.0 16.0 0.00 0.00 0.00 76 1093.8
20211017155458 33 322 9.0 16.0 0.00 0.00 0.00 76 1085.9
20211017154957 33 323 11.0 16.0 0.00 0.00 0.00 77 1099.3
20211017154458 33 324 8.0 16.0 0.00 0.00 0.00 77 1079.6
20211017153957 33 324 9.0 22.0 0.00 0.00 0.00 77 1079.2
20211017153457 34 330 7.0 22.0 0.00 0.00 0.00 77 1105.8
20211017152956 34 327 11.0 22.0 0.00 0.00 0.00 76 1091.8
20211017152455 34 316 10.0 19.0 0.00 0.00 0.00 76 1091.3
20211017151956 34 317 10.0 19.0 0.00 0.00 0.00 76 1097.5
20211017151456 34 318 8.0 16.0 0.00 0.00 0.00 75 1091.1
20211017150955 34 321 12.0 16.0 0.00 0.00 0.00 75 1096.8
20211017150455 34 314 9.0 16.0 0.00 0.00 0.00 75 1084.4
20211017145955 34 317 11.0 16.0 0.00 0.00 0.00 75 1088.7
20211017145455 34 316 10.0 16.0 0.00 0.00 0.00 75 1083.6
20211017144954 34 312 7.0 21.0 0.00 0.00 0.00 74 1079.5
20211017144452 35 301 10.0 21.0 0.00 0.00 0.00 74 1074.1
20211017143952 35 314 9.0 21.0 0.00 0.00 0.00 73 1076.3
20211017143451 35 310 7.0 24.0 0.00 0.00 0.00 72 1079.2
20211017142951 35 308 13.0 24.0 0.00 0.00 0.00 71 1077.9
20211017142450 35 310 11.0 19.0 0.00 0.00 0.00 71 1071.3
20211017141948 35 311 11.0 22.0 0.00 0.00 0.00 70 1091.5
20211017141449 35 309 7.0 22.0 0.00 0.00 0.00 70 1087.5
20211017140949 35 324 11.0 23.0 0.00 0.00 0.00 70 1083.9
20211017140448 35 306 12.0 19.0 0.00 0.00 0.00 69 1073.7
20211017135948 36 298 10.0 21.0 0.00 0.00 0.00 69 1078.0
20211017135448 36 324 8.0 21.0 0.00 0.00 0.00 71 1103.6
20211017134948 35 324 7.0 19.0 0.00 0.00 0.00 71 1091.3
20211017134448 35 317 10.0 19.0 0.00 0.00 0.00 70 1085.3
20211017133948 36 323 10.0 21.0 0.00 0.00 0.00 70 1087.2
20211017133448 36 317 8.0 22.0 0.00 0.00 0.00 70 1088.3
20211017132948 35 313 11.0 22.0 0.00 0.00 0.00 70 1080.4
20211017132448 35 314 11.0 25.0 0.00 0.00 0.00 70 1065.0
20211017131948 35 320 12.0 25.0 0.00 0.00 0.00 70 1061.9
20211017131448 35 326 11.0 20.0 0.00 0.00 0.00 70 1078.6
20211017130948 35 316 7.0 22.0 0.00 0.00 0.00 71 1097.5
20211017130448 35 322 9.0 22.0 0.00 0.00 0.00 72 1092.9
20211017125948 35 323 11.0 19.0 0.00 0.00 0.00 72 1087.8
20211017125448 35 320 8.0 17.0 0.00 0.00 0.00 70 1073.2
20211017124948 36 322 10.0 20.0 0.00 0.00 0.00 69 1074.4
20211017124448 36 319 9.0 20.0 0.00 0.00 0.00 69 1036.3
20211017123948 36 331 12.0 20.0 0.00 0.00 0.00 68 1039.3
20211017123448 36 321 10.0 24.0 0.00 0.00 0.00 67 1082.6
20211017122948 36 314 10.0 24.0 0.00 0.00 0.00 67 1086.9
20211017122448 36 311 11.0 20.0 0.00 0.00 0.00 66 1084.2
20211017121948 36 323 9.0 23.0 0.00 0.00 0.00 66 1077.6
20211017121448 36 312 11.0 23.0 0.00 0.00 0.00 66 1079.2
20211017120948 36 314 12.0 26.0 0.00 0.00 0.00 67 1071.2
20211017120447 36 304 12.0 26.0 0.00 0.00 0.00 67 1074.7
20211017115946 36 325 10.0 21.0 0.00 0.00 0.00 67 1086.1
20211017115446 36 315 9.0 17.0 0.00 0.00 0.00 67 1083.3
20211017114945 36 321 8.0 17.0 0.00 0.00 0.00 67 1092.4
20211017114445 36 327 11.0 17.0 0.00 0.00 0.00 67 1089.4
20211017113944 36 319 8.0 21.0 0.00 0.00 0.00 67 1088.4
20211017113444 36 313 10.0 25.0 0.00 0.00 0.00 67 1088.3
20211017112944 36 325 11.0 25.0 0.00 0.00 0.00 66 1087.8
20211017112443 36 318 11.0 20.0 0.00 0.00 0.00 66 1092.5
20211017111943 36 323 10.0 17.0 0.00 0.00 0.00 67 1088.4
20211017111443 36 315 7.0 24.0 0.00 0.00 0.00 67 1071.3
20211017110943 36 333 11.0 24.0 0.00 0.00 0.00 67 1059.8
20211017110442 36 302 8.0 20.0 0.00 0.00 0.00 67 1060.4
20211017105942 35 330 13.0 21.0 0.00 0.00 0.00 67 1071.8
20211017105442 36 312 9.0 21.0 0.00 0.00 0.00 67 1073.5
20211017104941 35 314 11.0 20.0 0.00 0.00 0.00 67 1090.9
20211017104440 35 327 10.0 25.0 0.00 0.00 0.00 68 1100.5
20211017103939 35 311 13.0 25.0 0.00 0.00 0.00 67 1082.4
20211017103439 35 323 8.0 19.0 0.00 0.00 0.00 67 1085.0
20211017102939 36 326 8.0 17.0 0.00 0.00 0.00 68 1079.8
20211017102439 35 319 9.0 19.0 0.00 0.00 0.00 69 1090.3
20211017101939 35 313 9.0 19.0 0.00 0.00 0.00 69 1086.6
20211017101439 35 328 8.0 16.0 0.00 0.00 0.00 70 1077.7
20211017100938 35 297 6.0 17.0 0.00 0.00 0.00 71 1035.5
20211017100438 34 296 10.0 17.0 0.00 0.00 0.00 70 1039.1
20211017095938 35 288 10.0 15.0 0.00 0.00 0.00 70 1049.7
20211017095438 35 317 9.0 15.0 0.00 0.00 0.00 70 1062.1
20211017094938 35 317 8.0 15.0 0.00 0.00 0.00 70 1044.8
20211017094438 34 307 5.0 19.0 0.00 0.00 0.00 72 1040.1
20211017093938 34 296 11.0 19.0 0.00 0.00 0.00 72 1032.0
20211017093438 34 298 7.0 17.0 0.00 0.00 0.00 73 1021.5
20211017092938 33 306 7.0 16.0 0.00 0.00 0.00 73 1036.5
20211017092438 33 293 10.0 16.0 0.00 0.00 0.00 74 1012.5
20211017091938 33 279 8.0 14.0 0.00 0.00 0.00 75 995.0
20211017091438 33 277 8.0 15.0 0.00 0.00 0.00 74 998.1
20211017090938 33 285 9.0 17.0 0.00 0.00 0.00 74 1004.8
20211017090438 33 288 12.0 17.0 0.00 0.00 0.00 74 1016.9
20211017085938 33 295 9.0 17.0 0.00 0.00 0.00 74 1026.8
20211017085438 32 285 11.0 20.0 0.00 0.00 0.00 74 1016.5
20211017084938 32 287 10.0 20.0 0.00 0.00 0.00 74 1017.7
20211017084438 32 286 11.0 19.0 0.00 0.00 0.00 74 1019.1
20211017083938 32 286 11.0 22.0 0.00 0.00 0.00 74 1018.1
20211017083438 32 285 12.0 22.0 0.00 0.00 0.00 74 1017.4
20211017082938 32 283 12.0 20.0 0.00 0.00 0.00 74 1014.2
20211017082438 31 287 12.0 20.0 0.00 0.00 0.00 75 1006.4
20211017081938 31 286 12.0 17.0 0.00 0.00 0.00 76 1011.7
20211017081438 31 280 11.0 17.0 0.00 0.00 0.00 76 1006.4
20211017080938 31 279 9.0 19.0 0.00 0.00 0.00 76 1008.5
20211017080438 31 295 10.0 19.0 0.00 0.00 0.00 76 1006.6
20211017075938 31 275 10.0 19.0 0.00 0.00 0.00 76 981.8
20211017075437 31 267 12.0 19.0 0.00 0.00 0.00 76 993.4
20211017074937 31 277 13.0 17.0 0.00 0.00 0.00 76 1012.0
20211017074437 31 282 7.0 17.0 0.00 0.00 0.00 77 1029.7
20211017073937 31 298 10.0 17.0 0.00 0.00 0.00 76 1054.8
20211017073437 30 304 9.0 14.0 0.00 0.00 0.00 77 1071.1
20211017072936 30 301 5.0 13.0 0.00 0.00 0.00 78 1069.0
20211017072436 30 298 7.0 13.0 0.00 0.00 0.00 78 1064.1
20211017071936 29 293 6.0 13.0 0.00 0.00 0.00 80 1073.3
20211017071436 28 296 2.0 14.0 0.00 0.00 0.00 83 1113.5
20211017070936 28 347 3.0 14.0 0.00 0.00 0.00 84 1166.3
20211017070436 27 332 3.0 14.0 0.00 0.00 0.00 85 1126.9
20211017065936 27 302 2.0 14.0 0.00 0.00 0.00 85 1111.9
20211017065435 27 327 2.0 14.0 0.00 0.00 0.00 85 1138.2
20211017064935 27 313 3.0 14.0 0.00 0.00 0.00 85 1113.4
20211017064435 27 322 2.0 14.0 0.00 0.00 0.00 85 1110.7
20211017063935 27 329 3.0 14.0 0.00 0.00 0.00 84 1092.7
20211017063435 27 311 3.0 14.0 0.00 0.00 0.00 85 1064.1
20211017062935 27 307 1.0 14.0 0.00 0.00 0.00 84 1037.9
20211017062434 28 287 2.0 14.0 0.00 0.00 0.00 84 1032.4
20211017061934 28 288 3.0 14.0 0.00 0.00 0.00 84 1030.0
20211017061434 28 295 3.0 14.0 0.00 0.00 0.00 84 1034.2
20211017060933 28 295 3.0 14.0 0.00 0.00 0.00 84 1032.2
20211017060433 28 298 3.0 14.0 0.00 0.00 0.00 83 1034.1
20211017055933 28 285 4.0 14.0 0.00 0.00 0.00 83 1017.5
20211017055433 28 287 5.0 14.0 0.00 0.00 0.00 83 1018.9
20211017054933 27 277 5.0 14.0 0.00 0.00 0.00 85 1020.8
20211017054433 27 298 2.0 14.0 0.00 0.00 0.00 84 1058.5
20211017053933 27 308 3.0 14.0 0.00 0.00 0.00 84 1060.0
20211017053432 28 302 4.0 14.0 0.00 0.00 0.00 84 1045.1
20211017052932 28 303 3.0 14.0 0.00 0.00 0.00 83 1038.6
20211017052432 28 292 4.0 14.0 0.00 0.00 0.00 83 1036.1
20211017051932 28 304 1.0 14.0 0.00 0.00 0.00 83 1053.4
20211017051432 29 295 2.0 14.0 0.00 0.00 0.00 82 1041.4
20211017050931 29 303 3.0 14.0 0.00 0.00 0.00 82 1023.9
20211017050431 29 288 4.0 14.0 0.00 0.00 0.00 82 1005.6
20211017045931 29 276 4.0 14.0 0.00 0.00 0.00 82 996.1
20211017045431 29 287 4.0 14.0 0.00 0.00 0.00 82 1000.7
20211017044931 29 282 5.0 14.0 0.00 0.00 0.00 82 966.9
20211017044431 28 272 3.0 14.0 0.00 0.00 0.00 84 946.0
20211017043931 28 255 3.0 14.0 0.00 0.00 0.00 85 943.2
20211017043431 28 264 0.0 14.0 0.00 0.00 0.00 84 955.8
20211017042931 28 264 0.0 14.0 0.00 0.00 0.00 83 965.7
20211017042431 28 284 3.0 14.0 0.00 0.00 0.00 83 980.2
20211017041931 28 274 4.0 14.0 0.00 0.00 0.00 84 964.7
20211017041431 28 269 5.0 14.0 0.00 0.00 0.00 83 970.0
20211017040930 28 261 4.0 14.0 0.00 0.00 0.00 84 991.8
20211017040429 28 278 2.0 14.0 0.00 0.00 0.00 83 1054.3
20211017035929 29 309 1.0 14.0 0.00 0.00 0.00 82 1080.5
20211017035428 29 309 1.0 14.0 0.00 0.00 0.00 82 1080.8
20211017034927 29 308 1.0 14.0 0.00 0.00 0.00 81 1082.4
20211017034427 29 310 0.0 14.0 0.00 0.00 0.00 81 1082.9
20211017033927 29 310 1.0 14.0 0.00 0.00 0.00 80 1078.7
20211017033427 30 327 1.0 14.0 0.00 0.00 0.00 80 1057.3
20211017032927 30 292 5.0 14.0 0.00 0.00 0.00 79 1016.4
20211017032427 30 283 6.0 14.0 0.00 0.00 0.00 79 1007.9
20211017031926 30 293 6.0 14.0 0.00 0.00 0.00 79 1013.9
20211017031426 30 290 6.0 14.0 0.00 0.00 0.00 79 1011.9
20211017030926 30 288 6.0 14.0 0.00 0.00 0.00 79 1021.6
20211017030426 30 284 7.0 14.0 0.00 0.00 0.00 79 1023.8
20211017025926 30 290 8.0 12.0 0.00 0.00 0.00 80 1036.0
20211017025426 29 304 3.0 11.0 0.00 0.00 0.00 82 1050.0
20211017024926 28 314 2.0 12.0 0.00 0.00 0.00 84 1043.6
20211017024426 28 316 2.0 12.0 0.00 0.00 0.00 85 981.2
20211017023926 28 356 1.0 12.0 0.00 0.00 0.00 84 806.5
20211017023426 28 346 1.0 12.0 0.00 0.00 0.00 84 993.7
20211017022925 28 337 1.0 12.0 0.00 0.00 0.00 84 1128.3
20211017022425 29 329 2.0 12.0 0.00 0.00 0.00 84 1098.8
20211017021925 29 314 1.0 12.0 0.00 0.00 0.00 84 1080.1
20211017021425 29 308 2.0 12.0 0.00 0.00 0.00 83 1065.0
20211017020925 29 297 2.0 12.0 0.00 0.00 0.00 83 1048.4
20211017020425 29 291 4.0 12.0 0.00 0.00 0.00 84 1048.2
20211017015925 29 306 2.0 12.0 0.00 0.00 0.00 83 1073.8
20211017015425 29 310 2.0 12.0 0.00 0.00 0.00 82 1070.7
20211017014925 29 292 3.0 12.0 0.00 0.00 0.00 82 1065.2
20211017014425 29 314 1.0 12.0 0.00 0.00 0.00 82 1094.1
20211017013925 29 308 3.0 12.0 0.00 0.00 0.00 82 1061.3
20211017013425 29 292 5.0 12.0 0.00 0.00 0.00 82 1041.1
20211017012925 29 308 4.0 12.0 0.00 0.00 0.00 81 1056.5
20211017012425 29 292 4.0 12.0 0.00 0.00 0.00 81 1043.0
20211017011925 29 301 3.0 12.0 0.00 0.00 0.00 81 1065.5
20211017011424 29 311 2.0 12.0 0.00 0.00 0.00 81 1062.0
20211017010923 29 297 2.0 12.0 0.00 0.00 0.00 80 1041.7
20211017010423 29 289 3.0 12.0 0.00 0.00 0.00 81 1044.1
20211017005922 29 291 3.0 12.0 0.00 0.00 0.00 81 1076.5
20211017005421 29 296 1.0 12.0 0.00 0.00 0.00 82 1127.9
20211017004921 29 354 0.0 12.0 0.00 0.00 0.00 82 1161.6
20211017004421 29 339 1.0 12.0 0.00 0.00 0.00 81 1111.1
20211017003921 29 317 3.0 12.0 0.00 0.00 0.00 81 1058.5
20211017003420 29 327 2.0 12.0 0.00 0.00 0.00 82 1033.1
20211017002919 29 323 4.0 12.0 0.00 0.00 0.00 83 923.2
20211017002419 28 335 2.0 12.0 0.00 0.00 0.00 84 805.2
20211017001919 28 12 1.0 12.0 0.00 0.00 0.00 84 556.0
20211017001419 29 7 3.0 12.0 0.00 0.00 0.00 83 782.7
20211017000919 29 321 2.0 12.0 0.00 0.00 0.00 83 1089.7
20211017000419 29 328 3.0 12.0 0.00 0.00 0.00 83 1072.7
20211016235919 29 307 2.0 12.0 0.00 0.00 0.00 83 1060.0
20211016235418 29 291 4.0 12.0 0.00 0.00 0.00 83 1054.9
20211016234918 29 315 2.0 12.0 0.00 0.00 0.00 83 1070.1
20211016234418 29 306 2.0 12.0 0.00 0.00 0.00 82 1051.9
20211016233918 29 328 3.0 12.0 0.00 0.00 0.00 82 1019.1
20211016233418 29 294 3.0 12.0 0.00 0.00 0.00 82 942.7
20211016232918 29 285 3.0 12.0 0.00 0.00 0.00 83 865.5
20211016232418 28 279 3.0 12.0 0.00 0.00 0.00 84 749.3
20211016231918 28 196 2.0 12.0 0.00 0.00 0.00 84 552.9
20211016231418 28 121 1.0 12.0 0.00 0.00 0.00 84 461.4
20211016230919 28 119 1.0 12.0 0.00 0.00 0.00 83 409.2
20211016230418 29 78 1.0 12.0 0.00 0.00 0.00 82 350.2
20211016225918 29 47 0.0 12.0 0.00 0.00 0.00 81 333.7
20211016225418 30 39 0.0 12.0 0.00 0.00 0.00 80 376.0
20211016224918 30 39 3.0 12.0 0.00 0.00 0.00 80 479.4
20211016224419 30 5 3.0 12.0 0.00 0.00 0.00 80 647.6
20211016223918 31 3 5.0 12.0 0.00 0.00 0.00 79 855.5
20211016223418 31 320 3.0 12.0 0.00 0.00 0.00 78 1041.8
20211016222917 31 313 5.0 15.0 0.00 0.00 0.00 78 1060.5
20211016222418 31 300 6.0 15.0 0.00 0.00 0.00 78 1048.0
20211016221916 31 314 6.0 15.0 0.00 0.00 0.00 78 1041.7
20211016221416 31 305 6.0 15.0 0.00 0.00 0.00 78 1012.5
20211016220915 30 306 6.0 11.0 0.00 0.00 0.00 80 966.0
20211016220414 29 315 5.0 12.0 0.00 0.00 0.00 83 889.4
20211016215913 28 258 2.0 12.0 0.00 0.00 0.00 85 698.5
20211016215412 28 235 0.0 12.0 0.00 0.00 0.00 85 581.5
20211016214913 28 5 1.0 12.0 0.00 0.00 0.00 85 302.7
20211016214412 28 26 2.0 12.0 0.00 0.00 0.00 85 240.4
20211016213913 28 17 0.0 12.0 0.00 0.00 0.00 84 251.0
20211016213413 29 17 0.0 12.0 0.00 0.00 0.00 83 292.9
20211016212912 29 17 0.0 12.0 0.00 0.00 0.00 83 374.7
20211016212413 29 17 0.0 12.0 0.00 0.00 0.00 82 535.6
20211016211913 30 8 1.0 12.0 0.00 0.00 0.00 82 864.9
20211016211413 30 1 0.0 12.0 0.00 0.00 0.00 81 1204.7
20211016210911 30 359 0.0 12.0 0.00 0.00 0.00 80 1175.4
20211016210411 31 359 2.0 12.0 0.00 0.00 0.00 80 1118.7
20211016205910 31 308 3.0 12.0 0.00 0.00 0.00 79 1036.4
20211016205410 31 293 4.0 12.0 0.00 0.00 0.00 79 997.7
20211016204910 31 291 4.0 12.0 0.00 0.00 0.00 80 983.1
20211016204409 31 280 3.0 12.0 0.00 0.00 0.00 81 933.2
20211016203908 30 280 3.0 12.0 0.00 0.00 0.00 82 870.6
20211016203407 30 293 2.0 12.0 0.00 0.00 0.00 84 738.1
20211016202907 30 6 1.0 12.0 0.00 0.00 0.00 84 409.7
20211016202407 30 25 1.0 12.0 0.00 0.00 0.00 82 373.9
20211016201907 30 24 1.0 12.0 0.00 0.00 0.00 82 508.8
20211016201407 31 4 1.0 12.0 0.00 0.00 0.00 82 792.7
20211016200906 31 342 2.0 12.0 0.00 0.00 0.00 82 1114.6
20211016200406 31 327 2.0 12.0 0.00 0.00 0.00 82 1130.1
20211016195906 31 329 2.0 12.0 0.00 0.00 0.00 82 1117.7
20211016195405 31 332 3.0 12.0 0.00 0.00 0.00 82 1152.9
20211016194906 31 339 2.0 12.0 0.00 0.00 0.00 81 1139.9
20211016194406 32 357 2.0 12.0 0.00 0.00 0.00 80 1080.4
20211016193906 32 345 3.0 12.0 0.00 0.00 0.00 79 1127.4
20211016193406 32 335 3.0 15.0 0.00 0.00 0.00 79 1101.0
20211016192906 32 320 3.0 15.0 0.00 0.00 0.00 79 1067.6
20211016192406 32 309 5.0 15.0 0.00 0.00 0.00 79 1081.1
20211016191906 32 324 3.0 15.0 0.00 0.00 0.00 79 1063.9
20211016191405 32 333 3.0 15.0 0.00 0.00 0.00 78 1110.0
20211016190905 33 327 3.0 15.0 0.00 0.00 0.00 78 1083.8
20211016190405 33 328 6.0 15.0 0.00 0.00 0.00 78 1082.1
20211016185905 32 335 2.0 15.0 0.00 0.00 0.00 78 1092.8
20211016185405 32 357 3.0 15.0 0.00 0.00 0.00 78 1038.1
20211016184905 32 340 4.0 15.0 0.00 0.00 0.00 78 1005.4
20211016184405 32 299 2.0 15.0 0.00 0.00 0.00 78 1049.3
20211016183905 32 334 2.0 15.0 0.00 0.00 0.00 77 1009.1
20211016183405 32 320 4.0 15.0 0.00 0.00 0.00 77 1103.4
20211016182904 32 338 2.0 15.0 0.00 0.00 0.00 76 1089.2
20211016182404 33 349 4.0 15.0 0.00 0.00 0.00 76 1031.5